User: anonymous   Login
Location: Malvern Link
(52.1333°N, 2.3000°W)
Time: 02:22:38
(UTC+00:00)
Language:

SPROUT - Orbit

View from above orbital plane
View from above orbital plane
View from above satellite
View from above satellite

Ground track
Ground track

The orbit data is extracted from the following two-line orbital elements,

1 39770U 14029E   22176.56988682  .00005966  00000-0  60867-3 0  9998
2 39770  97.9440 293.5579 0009911  65.7451 294.4773 14.90989131438870
Epoch (UTC): 25 June 2022 13:40:38
Eccentricity: 0.0009911
inclination: 97.9440°
perigee height: 588 km
apogee height: 602 km
right ascension of ascending node: 293.5579°
argument of perigee: 65.7451°
revolutions per day: 14.90989131
mean anomaly at epoch: 294.4773°
orbit number at epoch: 43887

The dashed part of the orbit path shows where the satellite is in the earth's shadow,  

DLR